CW9461 Weather Reports


Display with metric or nautical units.
time (UTC)temp
F
wind
direction
speed
MPH
gust
MPH
rain 1hr
in
rain 24hr
in
rain mn
in
humidity
%
barometer
mb
20260509022605 71 237 2.0 5.0 0.00 0.00 0.00 59 1005.1
20260509022106 71 236 3.0 6.0 0.00 0.00 0.00 59 1005.1
20260509021106 71 226 2.0 6.0 0.00 0.00 0.00 57 1005.1
20260509020605 72 245 3.0 7.0 0.00 0.00 0.00 57 1005.1
20260509020106 73 246 2.0 7.0 0.00 0.00 0.00 57 1004.7
20260509015106 74 234 3.0 6.0 0.00 0.00 0.00 54 1004.7
20260509014605 74 250 2.0 7.0 0.00 0.00 0.00 53 1005.1
20260509014106 74 237 2.0 5.0 0.00 0.00 0.00 53 1005.1
20260509013606 74 219 2.0 5.0 0.00 0.00 0.00 53 1005.1
20260509012605 74 242 2.0 5.0 0.00 0.00 0.00 53 1005.1
20260509012105 74 230 3.0 6.0 0.00 0.00 0.00 54 1005.1
20260509011606 74 239 2.0 6.0 0.00 0.00 0.00 54 1005.3
20260509011105 74 216 3.0 10.0 0.00 0.00 0.00 53 1005.3
20260509010606 75 235 4.0 13.0 0.00 0.00 0.00 53 1005.1
20260509010106 76 267 2.0 7.0 0.00 0.00 0.00 54 1005.4
20260509005105 75 221 2.0 8.0 0.00 0.00 0.00 54 1005.2
20260509004606 75 258 2.0 6.0 0.00 0.00 0.00 54 1005.4
20260509003606 75 167 2.0 8.0 0.00 0.00 0.00 55 1005.4
20260509003106 74 242 3.0 8.0 0.00 0.00 0.00 56 1005.4
20260509002606 74 236 3.0 6.0 0.00 0.00 0.00 57 1005.4
20260509002106 73 239 4.0 8.0 0.00 0.00 0.00 57 1005.4
20260509001105 74 240 5.0 12.0 0.00 0.00 0.00 57 1005.7
20260509000605 74 266 4.0 9.0 0.00 0.00 0.00 56 1005.8
20260509000107 74 243 5.0 14.0 0.00 0.00 0.00 56 1005.8
20260508235605 74 260 5.0 10.0 0.00 0.00 0.00 56 1005.7
20260508235105 74 273 5.0 13.0 0.00 0.00 0.00 56 1005.7
20260508234105 74 256 5.0 10.0 0.00 0.00 0.00 56 1005.8
20260508233606 74 254 5.0 8.0 0.00 0.00 0.00 56 1005.8
20260508233105 74 276 5.0 10.0 0.00 0.00 0.00 56 1005.8
20260508232606 74 232 6.0 12.0 0.00 0.00 0.00 55 1005.8
20260508232105 74 256 5.0 9.0 0.00 0.00 0.00 55 1005.8
20260508231604 75 275 7.0 12.0 0.00 0.00 0.00 55 1006.0
20260508231105 75 275 5.0 8.0 0.00 0.00 0.00 55 1006.1
20260508230605 74 251 5.0 9.0 0.00 0.00 0.00 55 1006.1
20260508230105 75 246 5.0 13.0 0.00 0.00 0.00 54 1006.1
20260508225605 75 232 4.0 12.0 0.00 0.00 0.00 54 1006.1
20260508225105 75 280 3.0 7.0 0.00 0.00 0.00 54 1006.1
20260508224605 76 234 5.0 8.0 0.00 0.00 0.00 53 1006.1
20260508223605 76 268 5.0 9.0 0.00 0.00 0.00 54 1006.3
20260508223105 75 248 4.0 8.0 0.00 0.00 0.00 55 1006.4
20260508222606 75 245 3.0 8.0 0.00 0.00 0.00 55 1006.4
20260508222105 74 278 4.0 8.0 0.00 0.00 0.00 55 1006.7
20260508221606 74 236 5.0 8.0 0.00 0.00 0.00 56 1006.4
20260508220605 74 238 5.0 10.0 0.00 0.00 0.00 56 1006.8
20260508220105 74 260 3.0 9.0 0.00 0.00 0.00 56 1007.0
20260508215605 73 263 5.0 7.0 0.00 0.00 0.00 56 1007.0
20260508214605 73 253 5.0 10.0 0.00 0.00 0.00 57 1007.1
20260508214104 73 246 4.0 10.0 0.00 0.00 0.00 57 1007.2
20260508213605 73 259 3.0 8.0 0.00 0.00 0.00 57 1007.1
20260508213105 72 226 5.0 12.0 0.00 0.00 0.00 58 1007.1
20260508212605 72 290 5.0 12.0 0.00 0.00 0.00 59 1007.5
20260508212105 72 270 5.0 10.0 0.00 0.00 0.00 59 1007.5
20260508211604 71 270 6.0 10.0 0.00 0.00 0.00 60 1007.8
20260508211105 71 258 4.0 8.0 0.00 0.00 0.00 60 1007.8
20260508210605 70 254 3.0 8.0 0.00 0.00 0.00 60 1007.8
20260508205605 70 278 5.0 9.0 0.00 0.00 0.00 60 1007.8
20260508205105 70 271 5.0 8.0 0.00 0.00 0.00 61 1007.8
20260508204606 70 259 5.0 9.0 0.00 0.00 0.00 61 1007.9
20260508203605 70 253 5.0 9.0 0.00 0.00 0.00 61 1007.8
20260508203106 70 282 5.0 10.0 0.00 0.00 0.00 61 1008.1
20260508202605 69 259 5.0 10.0 0.00 0.00 0.00 62 1008.1
20260508202105 69 252 4.0 13.0 0.00 0.00 0.00 62 1007.9
20260508201604 69 248 5.0 10.0 0.00 0.00 0.00 62 1007.9
20260508201106 69 258 5.0 8.0 0.00 0.00 0.00 62 1008.1
20260508200605 69 254 5.0 13.0 0.00 0.00 0.00 62 1008.0
20260508200105 68 241 5.0 13.0 0.00 0.00 0.00 63 1008.1
20260508195605 68 266 5.0 9.0 0.00 0.00 0.00 63 1008.4
20260508195105 68 290 5.0 10.0 0.00 0.00 0.00 63 1008.1
20260508194605 68 266 5.0 9.0 0.00 0.00 0.00 64 1008.2
20260508194105 67 241 4.0 12.0 0.00 0.00 0.00 64 1008.1
20260508193605 67 223 6.0 13.0 0.00 0.00 0.00 64 1008.5
20260508193104 67 276 5.0 10.0 0.00 0.00 0.00 63 1008.5
20260508192604 67 263 5.0 13.0 0.00 0.00 0.00 64 1008.5
20260508192105 67 264 4.0 9.0 0.00 0.00 0.00 64 1008.5
20260508191605 67 275 5.0 8.0 0.00 0.00 0.00 64 1008.5
20260508190606 66 232 6.0 13.0 0.00 0.00 0.00 65 1008.5
20260508190105 66 273 4.0 9.0 0.00 0.00 0.00 65 1008.5
20260508185105 66 283 3.0 7.0 0.00 0.00 0.00 65 1008.7
20260508184605 66 244 5.0 9.0 0.00 0.00 0.00 65 1008.8
20260508184104 66 271 4.0 8.0 0.00 0.00 0.00 65 1008.8
20260508183605 66 262 5.0 14.0 0.00 0.00 0.00 65 1008.8
20260508183105 66 270 5.0 12.0 0.00 0.00 0.00 64 1008.8
20260508182604 66 258 6.0 12.0 0.00 0.00 0.00 64 1008.8
20260508182105 67 255 5.0 10.0 0.00 0.00 0.00 64 1008.8
20260508181105 67 208 1.0 8.0 0.00 0.00 0.00 63 1008.8
20260508180605 66 148 2.0 7.0 0.00 0.00 0.00 64 1008.8
20260508180105 66 198 2.0 7.0 0.00 0.00 0.00 65 1008.8
20260508175105 66 245 3.0 7.0 0.00 0.00 0.00 64 1008.9
20260508174604 65 232 3.0 7.0 0.00 0.00 0.00 64 1008.8
20260508172605 64 132 2.0 6.0 0.00 0.00 0.00 65 1008.8
20260508172105 64 133 2.0 9.0 0.00 0.00 0.00 65 1009.0
20260508170604 63 149 3.0 6.0 0.00 0.00 0.00 67 1008.8
20260508165604 63 153 2.0 6.0 0.00 0.00 0.00 68 1009.1
20260508165105 62 140 2.0 8.0 0.00 0.00 0.00 68 1008.8
20260508164604 61 164 3.0 8.0 0.00 0.00 0.00 69 1008.9
20260508164105 61 132 3.0 7.0 0.00 0.00 0.00 69 1008.8
20260508163605 61 148 4.0 9.0 0.00 0.00 0.00 70 1008.8
20260508162605 60 148 3.0 7.0 0.00 0.00 0.00 72 1009.1
20260508162104 60 163 3.0 8.0 0.00 0.00 0.00 73 1008.8
20260508161605 59 138 4.0 10.0 0.00 0.00 0.00 73 1008.8
20260508161104 59 140 3.0 8.0 0.00 0.00 0.00 74 1009.1
20260508160104 59 169 3.0 8.0 0.00 0.00 0.00 76 1009.1
20260508155105 58 173 3.0 8.0 0.00 0.00 0.00 77 1009.0
20260508153604 57 161 2.0 9.0 0.00 0.00 0.00 79 1009.1
20260508153105 57 149 4.0 9.0 0.00 0.00 0.00 80 1009.0
20260508152605 57 162 5.0 8.0 0.00 0.00 0.00 80 1009.1
20260508152104 57 142 5.0 8.0 0.00 0.00 0.00 82 1009.1
20260508151604 57 161 3.0 6.0 0.00 0.00 0.00 84 1009.1
20260508151104 57 183 2.0 3.0 0.00 0.00 0.00 85 1009.4
20260508150604 56 157 2.0 6.0 0.00 0.00 0.00 87 1009.1
20260508150105 55 193 2.0 6.0 0.00 0.00 0.00 88 1009.1
20260508145604 55 223 1.0 6.0 0.00 0.00 0.00 89 1009.1
20260508145104 54 178 1.0 5.0 0.00 0.00 0.00 90 1009.1
20260508144604 53 209 3.0 6.0 0.00 0.00 0.00 91 1009.1
20260508144104 53 181 2.0 3.0 0.00 0.00 0.00 92 1009.1
20260508143605 52 193 2.0 5.0 0.00 0.00 0.00 92 1009.1
20260508143104 52 177 2.0 3.0 0.00 0.00 0.00 93 1009.1
20260508142604 51 149 2.0 6.0 0.00 0.00 0.00 93 1009.0
20260508142104 51 227 1.0 5.0 0.00 0.00 0.00 94 1008.8
20260508141605 51 157 1.0 3.0 0.00 0.00 0.00 94 1008.9
20260508140604 51 168 0.0 2.0 0.00 0.00 0.00 94 1008.9
20260508140104 51 157 1.0 3.0 0.00 0.00 0.00 94 1008.8
20260508135604 51 219 0.0 3.0 0.00 0.00 0.00 94 1008.8
20260508134604 51 160 1.0 2.0 0.00 0.00 0.00 93 1008.5
20260508133604 51 148 1.0 5.0 0.00 0.00 0.00 93 1008.5
20260508132604 50 159 1.0 3.0 0.00 0.00 0.00 93 1008.5
20260508131605 51 168 0.0 2.0 0.00 0.00 0.00 93 1008.5
20260508131104 51 143 1.0 3.0 0.00 0.00 0.00 93 1008.5
20260508130605 51 157 1.0 2.0 0.00 0.00 0.00 93 1008.5
20260508130104 51 179 2.0 5.0 0.00 0.00 0.00 93 1008.5
20260508125104 51 157 1.0 3.0 0.00 0.00 0.00 93 1008.3
20260508124605 51 135 1.0 3.0 0.00 0.00 0.00 93 1008.1
20260508124104 51 139 1.0 3.0 0.00 0.00 0.00 93 1008.1
20260508123605 51 135 0.0 2.0 0.00 0.00 0.00 93 1008.3
20260508123104 51 157 0.0 1.0 0.00 0.00 0.00 93 1008.5
20260508122604 51 157 0.0 3.0 0.00 0.00 0.00 92 1008.5
20260508121604 51 157 1.0 1.0 0.00 0.00 0.00 92 1008.5
20260508121103 51 157 1.0 2.0 0.00 0.00 0.00 92 1008.5
20260508120604 51 180 1.0 2.0 0.00 0.00 0.00 92 1008.5
20260508120105 50 142 2.0 3.0 0.00 0.00 0.00 91 1008.5
20260508115104 51 157 0.0 3.0 0.00 0.00 0.00 91 1008.5
20260508114604 51 157 0.0 0.0 0.00 0.00 0.00 91 1008.5
20260508113105 51 154 0.0 2.0 0.00 0.00 0.00 90 1008.5
20260508111605 52 180 1.0 2.0 0.00 0.00 0.00 90 1008.1
20260508111104 52 166 2.0 3.0 0.00 0.00 0.00 90 1008.1
20260508110605 52 139 2.0 3.0 0.00 0.00 0.00 90 1008.1
20260508110105 52 154 2.0 5.0 0.00 0.00 0.00 90 1008.1
20260508105605 52 138 2.0 6.0 0.00 0.00 0.00 89 1008.1
20260508105104 52 133 2.0 5.0 0.00 0.00 0.00 89 1008.1
20260508104606 52 157 1.0 5.0 0.00 0.00 0.00 89 1008.3
20260508104104 52 157 2.0 6.0 0.00 0.00 0.00 89 1008.3
20260508103605 52 136 2.0 3.0 0.00 0.00 0.00 89 1008.3
20260508103104 52 157 3.0 6.0 0.00 0.00 0.00 89 1008.1
20260508102604 52 155 3.0 8.0 0.00 0.00 0.00 89 1008.1
20260508102104 52 153 2.0 6.0 0.00 0.00 0.00 89 1008.1
20260508101604 52 161 2.0 6.0 0.00 0.00 0.00 89 1008.1
20260508101104 52 129 2.0 6.0 0.00 0.00 0.00 89 1008.1
20260508100105 52 155 3.0 8.0 0.00 0.00 0.00 89 1008.1
20260508095605 52 135 3.0 5.0 0.00 0.00 0.00 89 1008.1
20260508094604 52 143 3.0 7.0 0.00 0.00 0.00 89 1008.1
20260508094104 52 132 1.0 3.0 0.00 0.00 0.00 89 1008.1
20260508092605 53 153 2.0 5.0 0.00 0.00 0.00 88 1008.1
20260508092105 53 158 1.0 6.0 0.00 0.00 0.00 88 1008.1
20260508091603 53 135 2.0 6.0 0.00 0.00 0.00 88 1008.1
20260508091104 53 110 2.0 7.0 0.00 0.00 0.00 88 1008.1
20260508085604 53 130 3.0 7.0 0.00 0.00 0.00 88 1008.1
20260508084603 53 131 1.0 3.0 0.00 0.00 0.00 87 1008.1
20260508084104 53 147 2.0 7.0 0.00 0.00 0.00 87 1008.1
20260508083604 54 152 2.0 5.0 0.00 0.00 0.00 87 1008.1
20260508083104 54 140 2.0 7.0 0.00 0.00 0.00 87 1008.1
20260508082604 54 157 2.0 5.0 0.00 0.00 0.00 87 1008.1
20260508082104 54 194 2.0 3.0 0.00 0.00 0.00 87 1008.3
20260508081604 54 141 2.0 6.0 0.00 0.00 0.00 87 1008.3
20260508081104 54 157 2.0 6.0 0.00 0.00 0.00 87 1008.4
20260508080604 54 157 1.0 6.0 0.00 0.00 0.00 87 1008.5
20260508080104 55 170 2.0 6.0 0.00 0.00 0.00 87 1008.5
20260508075604 55 161 2.0 5.0 0.00 0.00 0.00 87 1008.1
20260508075104 55 155 1.0 6.0 0.00 0.00 0.00 88 1008.1
20260508074603 55 152 2.0 6.0 0.00 0.00 0.00 88 1008.1
20260508074105 55 157 1.0 3.0 0.00 0.00 0.00 88 1008.3
20260508073604 55 157 1.0 3.0 0.00 0.00 0.00 88 1008.1
20260508073103 55 138 2.0 5.0 0.00 0.00 0.00 89 1008.3
20260508072604 55 271 1.0 5.0 0.00 0.00 0.00 89 1008.1
20260508072104 55 177 1.0 3.0 0.00 0.00 0.00 89 1008.1
20260508071604 55 210 2.0 6.0 0.00 0.00 0.00 89 1008.3
20260508071105 55 183 2.0 6.0 0.00 0.00 0.00 90 1008.3
20260508070604 55 124 2.0 6.0 0.00 0.00 0.00 90 1008.1
20260508070104 55 223 2.0 6.0 0.00 0.00 0.00 90 1008.1
20260508065604 55 167 1.0 3.0 0.00 0.00 0.00 90 1008.3
20260508065104 55 178 0.0 2.0 0.00 0.00 0.00 90 1008.1
20260508064604 55 187 1.0 3.0 0.00 0.00 0.00 90 1008.1
20260508064104 54 184 0.0 2.0 0.00 0.00 0.00 90 1008.1
20260508063605 54 180 0.0 2.0 0.00 0.00 0.00 90 1008.1
20260508063103 55 171 1.0 3.0 0.00 0.00 0.00 90 1008.1
20260508062603 55 180 1.0 3.0 0.00 0.00 0.00 90 1008.1
20260508062104 55 166 2.0 3.0 0.00 0.00 0.00 90 1008.1
20260508061606 54 135 1.0 3.0 0.00 0.00 0.00 90 1008.1
20260508061106 54 209 0.0 1.0 0.00 0.00 0.00 90 1008.1
20260508060606 55 179 1.0 2.0 0.00 0.00 0.00 89 1007.8
20260508060106 55 176 1.0 2.0 0.00 0.00 0.00 89 1008.0
20260508055605 55 157 0.0 0.0 0.00 0.00 0.00 89 1007.8
20260508055107 55 217 0.0 1.0 0.00 0.00 0.00 89 1007.8
20260508054605 55 154 0.0 0.0 0.00 0.00 0.00 88 1007.8
20260508054107 55 112 0.0 1.0 0.00 0.00 0.00 88 1007.8
20260508053605 55 157 0.0 1.0 0.00 0.00 0.00 88 1008.0
20260508053106 55 157 0.0 2.0 0.00 0.00 0.00 88 1007.8
20260508052605 55 112 0.0 0.0 0.00 0.00 0.00 88 1007.8
20260508052107 55 119 1.0 5.0 0.00 0.00 0.00 88 1007.8
20260508051605 55 158 1.0 3.0 0.00 0.00 0.00 88 1007.8
20260508051107 55 127 1.0 2.0 0.00 0.00 0.00 87 1007.8
20260508050605 55 190 1.0 2.0 0.00 0.00 0.00 87 1007.8
20260508045605 55 157 0.0 1.0 0.00 0.00 0.00 86 1007.8
20260508045105 56 157 0.0 1.0 0.00 0.00 0.00 86 1007.8
20260508044606 56 135 0.0 1.0 0.00 0.00 0.00 85 1007.8
20260508043606 57 180 0.0 1.0 0.00 0.00 0.00 85 1007.6
20260508042606 57 292 0.0 1.0 0.00 0.00 0.00 84 1007.6
20260508042105 58 292 0.0 1.0 0.00 0.00 0.00 84 1007.6
20260508041606 58 292 1.0 2.0 0.00 0.00 0.00 84 1007.5
20260508041105 58 243 2.0 6.0 0.00 0.00 0.00 84 1007.5
20260508040606 58 260 3.0 6.0 0.00 0.00 0.00 83 1007.3
20260508040107 59 250 2.0 7.0 0.00 0.00 0.00 83 1007.3
20260508035605 59 256 3.0 8.0 0.00 0.00 0.00 83 1007.1
20260508035105 59 230 2.0 6.0 0.00 0.00 0.00 84 1007.1
20260508034606 59 240 2.0 6.0 0.00 0.00 0.00 84 1007.1
20260508034107 59 260 2.0 6.0 0.00 0.00 0.00 84 1006.8
20260508033606 59 248 3.0 6.0 0.00 0.00 0.00 83 1007.0
20260508033105 60 249 2.0 3.0 0.00 0.00 0.00 83 1006.8
20260508032606 60 288 1.0 2.0 0.00 0.00 0.00 82 1006.8
20260508032106 60 283 2.0 2.0 0.00 0.00 0.00 82 1006.8
20260508031606 60 271 1.0 3.0 0.00 0.00 0.00 81 1006.6
20260508030605 61 266 1.0 5.0 0.00 0.00 0.00 80 1006.8
20260508025605 62 264 3.0 6.0 0.00 0.00 0.00 79 1006.4
20260508025105 62 258 3.0 7.0 0.00 0.00 0.00 78 1006.4
20260508024605 63 256 3.0 7.0 0.00 0.00 0.00 77 1006.4
20260508024107 63 277 3.0 7.0 0.00 0.00 0.00 77 1006.4